Theta_e
326 318 315 310 300 297 294 298 304 306 307 308 318 322 320 322 319 312 333 338 347 353 360 364 364 364 363 363 362 361 360 360 360 360 360 360 360 359 359 358 356 352 348 345 343 342 340 339 338
324 319 314 302 296 293 298 305 305 305 310 308 314 319 322 320 330 332 334 343 347 354 359 361 364 363 363 363 361 360 360 361 360 360 360 360 360 359 358 358 356 351 348 345 343 341 340 340 338
316 319 307 297 293 294 300 308 307 312 314 309 307 318 319 321 328 332 338 343 348 352 356 360 364 363 363 363 361 361 361 361 361 361 360 360 360 359 358 357 356 351 347 345 343 342 342 341 339
309 309 306 295 294 300 305 311 311 311 313 312 313 312 318 327 328 336 343 344 346 348 354 362 363 363 363 362 362 361 361 361 361 360 360 360 359 358 358 358 356 354 348 345 343 343 342 341 338
307 303 295 293 294 300 305 308 311 309 309 311 312 310 312 319 333 339 341 342 342 345 353 360 362 363 363 363 362 361 361 361 361 361 360 359 359 358 357 357 355 353 350 347 344 344 345 344 342
300 302 293 291 296 303 306 309 314 314 311 311 310 311 310 316 318 332 340 338 341 343 352 358 360 361 362 362 361 360 360 360 360 360 360 360 358 358 357 357 356 354 352 351 347 347 346 345 343
297 296 293 294 298 301 305 309 311 316 314 312 312 309 310 313 315 320 337 339 339 346 349 355 358 359 361 362 360 360 359 359 359 359 359 359 358 357 357 356 356 356 354 352 351 348 347 346 345
301 298 294 295 296 298 306 307 314 315 314 319 317 308 305 312 316 319 327 337 337 346 348 351 355 357 357 358 361 360 360 359 358 359 359 358 358 357 357 354 354 356 354 353 351 350 349 348 346
301 292 291 295 297 300 305 304 309 314 314 316 316 313 315 316 317 326 335 342 343 345 343 347 352 353 354 355 359 360 361 361 360 359 359 355 352 352 352 352 353 355 355 354 353 351 350 349 348
297 291 293 301 303 302 306 303 306 306 308 311 315 317 317 315 314 319 328 336 341 342 343 343 345 349 351 355 354 354 355 356 355 355 354 350 346 346 349 351 354 355 355 354 353 352 351 349 340
296 292 298 300 302 305 306 306 308 305 302 307 311 314 315 313 311 314 324 327 326 336 344 343 343 344 347 349 351 350 349 348 348 348 348 344 345 342 346 343 347 345 352 346 349 346 345 341 338
293 299 301 302 304 303 301 305 303 304 304 309 314 316 313 312 310 313 320 323 324 326 338 342 342 342 341 348 349 348 348 345 344 344 345 342 338 337 338 340 339 341 342 342 340 340 341 339 337
293 297 301 303 303 303 304 302 303 303 309 314 313 315 313 310 311 316 320 321 323 326 330 334 341 341 339 346 345 345 345 346 344 343 344 343 339 336 335 336 339 340 339 340 338 337 337 336 335
296 297 298 299 299 299 300 302 301 305 308 313 313 312 312 312 312 313 316 319 320 323 327 329 339 342 343 345 343 343 343 345 344 342 343 345 342 337 337 337 338 338 338 339 339 338 335 333 333
296 292 295 296 297 297 299 297 298 303 309 310 312 312 312 313 312 313 315 318 319 321 325 330 333 345 344 346 347 345 343 343 343 344 343 345 345 342 338 339 339 339 340 339 340 338 336 333 334
292 290 286 294 298 299 297 292 298 302 302 304 310 311 312 313 314 313 315 318 320 320 321 329 338 339 347 346 346 346 344 342 343 344 345 346 345 345 344 342 340 339 338 337 334 334 331 331 331
288 284 287 291 297 297 295 293 299 302 301 301 308 310 311 311 312 314 316 319 320 320 320 324 330 335 340 342 345 346 344 341 342 340 344 345 347 346 343 344 343 342 339 336 335 332 329 326 327
285 285 288 289 294 294 293 293 298 300 300 301 301 308 309 311 309 313 316 319 320 321 321 323 324 325 330 332 334 342 345 344 344 342 339 344 347 348 346 343 342 340 338 336 333 332 330 329 327
291 289 288 292 296 293 291 292 295 298 298 300 298 298 300 307 311 313 317 319 320 321 322 322 321 323 326 325 327 330 331 340 341 342 343 342 339 346 346 345 342 339 337 337 334 331 331 328 331
292 289 289 293 296 293 292 291 295 296 297 297 298 299 300 303 308 314 315 316 316 317 319 321 322 321 322 323 324 324 328 331 335 333 333 337 343 342 343 345 342 340 340 337 334 332 329 330 333
291 289 289 290 294 294 291 289 292 296 297 299 299 299 302 304 307 311 313 314 314 315 315 317 318 319 319 320 322 324 326 324 325 326 329 330 331 332 342 343 343 340 338 338 337 334 330 328 331
287 294 294 292 289 282 291 281 289 293 294 297 298 297 298 302 307 311 312 311 315 315 317 317 319 319 319 322 319 318 319 319 324 326 328 329 333 335 342 343 342 341 341 338 336 338 335 330 327
290 295 292 292 287 283 286 282 288 291 292 294 297 298 298 299 305 308 309 311 312 313 312 317 318 317 320 320 319 317 316 318 322 324 324 325 329 332 333 336 343 342 341 340 337 335 334 334 332
297 292 289 287 284 279 284 283 285 289 291 294 298 300 302 303 303 308 310 311 311 313 312 315 315 315 318 318 318 318 317 317 318 319 322 323 325 326 327 328 332 343 343 343 341 337 336 334 335
291 284 278 276 277 279 286 284 287 292 296 298 297 300 302 303 301 306 309 309 310 310 310 316 315 313 315 316 316 316 315 318 317 320 321 321 322 324 325 325 326 331 343 342 342 341 338 337 337
289 287 283 275 275 280 288 282 288 297 299 300 301 301 300 300 305 308 308 308 308 309 309 315 311 309 314 314 314 315 315 315 317 319 317 321 321 325 327 329 329 329 330 335 343 342 342 341 339
289 285 288 286 288 281 283 287 293 297 297 299 299 300 300 300 303 306 307 308 306 306 308 309 312 311 312 314 314 315 316 316 317 317 317 317 320 323 326 328 325 327 329 333 338 340 340 340 340
292 294 285 287 278 278 282 284 285 289 294 296 297 300 301 301 302 302 304 306 306 306 308 309 311 313 312 314 313 314 312 315 317 316 316 318 319 320 322 323 324 326 329 330 328 328 335 342 342
289 288 288 286 285 281 277 280 289 291 293 294 296 299 299 301 302 302 301 302 303 303 303 305 308 311 310 312 313 312 313 314 317 318 317 316 315 315 318 322 326 327 326 326 327 327 330 329 336
293 289 287 280 279 285 284 284 296 295 296 296 297 301 300 302 301 301 302 302 301 302 304 305 306 309 311 312 313 313 314 314 313 312 311 311 312 315 317 320 321 322 325 325 323 325 329 331 331
Wind_Speed
8 8 0 3 4 5 4 6 1 10 7 6 4 16 5 3 5 5 1 9 18 17 13 12 17 18 19 18 17 16 16 15 15 15 16 16 15 15 15 15 14 14 13 12 10 9 8 8 7
6 6 4 2 5 4 6 1 6 4 8 3 4 6 15 6 6 6 5 11 17 17 14 11 15 18 19 20 17 16 16 15 15 15 14 15 14 14 14 14 13 13 12 12 10 9 8 7 5
5 2 4 4 3 6 4 1 6 10 10 9 4 6 4 1 5 3 8 15 15 14 12 12 15 15 17 19 17 15 15 15 15 14 14 13 12 12 11 11 11 11 11 11 10 8 8 7 5
4 5 4 4 7 7 3 8 5 7 8 17 8 8 4 3 3 10 17 19 15 13 13 15 16 15 17 19 19 15 14 14 14 13 13 13 13 11 11 11 10 9 9 9 8 7 5 4 2
3 3 3 0 6 6 5 6 4 6 7 7 6 5 5 9 5 16 16 17 19 14 12 14 18 17 18 20 20 20 15 14 14 13 13 12 12 11 10 10 10 9 8 8 7 6 5 4 3
4 3 3 3 5 7 5 11 5 2 2 5 4 4 3 5 8 6 14 15 14 18 14 15 20 19 17 19 21 20 19 15 14 13 12 12 11 11 10 10 10 9 7 7 8 7 5 4 4
5 4 5 4 5 8 5 7 17 16 6 17 4 2 4 7 7 7 12 10 16 13 13 12 13 16 17 14 17 19 20 19 16 14 13 12 11 11 11 10 9 9 8 7 8 7 6 7 6
4 5 3 4 4 9 4 9 8 7 18 20 8 5 3 2 7 9 9 15 12 10 10 11 12 11 11 10 12 15 17 17 17 16 14 13 13 12 11 10 9 9 8 8 8 9 10 9 9
1 3 4 5 4 10 2 5 5 6 11 15 4 8 8 8 10 14 13 13 10 9 5 7 13 14 12 10 9 9 15 15 14 14 14 10 5 7 9 9 10 10 10 10 11 10 11 9 9
5 4 7 6 4 9 19 5 8 3 7 10 16 5 2 11 12 12 9 8 7 9 10 5 3 13 13 9 7 5 5 5 6 6 8 5 5 5 7 9 13 12 12 12 13 13 12 10 3
5 6 4 7 10 12 22 12 7 6 9 11 15 11 6 7 10 10 8 9 7 6 8 13 7 4 12 12 7 4 2 3 3 5 5 4 4 4 4 3 4 4 10 4 8 6 4 5 3
4 6 9 11 13 13 12 18 11 6 10 8 12 8 9 10 8 11 11 8 7 6 5 11 14 8 5 4 10 9 6 5 4 4 6 4 3 4 4 3 4 4 4 5 5 3 5 4 4
6 7 12 17 16 15 16 19 16 13 7 7 6 7 11 7 8 5 14 8 8 9 7 4 9 12 8 6 4 9 9 7 7 6 8 6 5 5 4 4 4 4 4 5 5 4 5 4 5
5 7 8 8 10 8 12 19 7 14 10 9 8 9 9 10 9 4 6 10 8 8 8 5 8 6 7 7 7 7 8 9 8 6 7 9 7 6 5 5 5 5 5 4 4 5 4 4 4
4 5 8 4 4 5 3 9 10 6 6 8 7 8 8 11 10 11 9 8 10 7 9 10 6 7 8 7 6 5 8 8 9 10 10 10 9 9 7 6 5 5 5 6 4 4 3 4 4
5 3 3 7 4 6 7 14 14 11 5 9 11 10 10 10 11 10 11 10 8 9 10 9 8 9 8 3 4 4 4 5 7 7 10 11 10 9 7 6 6 5 5 5 4 4 4 3 4
5 4 6 8 7 6 5 15 9 10 10 8 10 10 10 9 10 9 10 12 12 10 11 9 9 9 9 10 4 5 2 2 4 4 7 11 11 10 8 6 5 6 5 4 4 3 3 3 4
6 4 6 6 6 2 8 12 13 10 10 17 11 12 10 13 11 13 10 10 9 8 5 7 4 4 4 2 12 5 0 1 4 4 4 7 8 10 8 5 7 5 4 4 3 5 3 5 3
7 7 11 10 5 1 5 9 12 10 11 17 11 8 7 10 10 6 8 9 8 8 9 8 8 2 2 2 3 4 8 5 5 3 2 4 5 7 7 7 5 5 7 8 5 3 5 3 3
11 10 7 6 4 4 8 11 15 6 8 8 9 8 9 8 7 8 10 9 8 9 8 8 8 7 4 3 1 2 3 4 1 4 4 6 3 7 6 7 7 7 6 5 6 6 2 3 4
9 6 4 6 5 5 5 8 9 7 5 7 6 7 7 12 11 10 12 13 10 10 9 8 8 7 4 3 2 3 1 1 2 3 2 3 5 5 8 7 8 8 8 8 9 6 8 6 3
4 5 5 7 2 3 5 9 9 7 7 7 9 8 9 8 9 15 16 12 13 9 8 9 8 6 3 4 3 3 3 0 3 2 2 3 4 5 9 7 7 8 7 9 9 8 8 4 6
9 8 6 4 4 2 1 2 10 7 13 11 11 11 10 11 15 16 17 16 10 10 8 8 8 7 5 5 4 3 2 1 2 3 5 3 6 6 4 8 12 10 8 9 9 7 8 5 5
7 3 3 3 2 6 6 7 13 13 8 7 6 10 14 18 13 18 12 12 10 9 9 8 9 7 8 7 6 7 6 5 3 3 3 4 3 5 6 6 7 9 10 11 9 10 8 5 6
3 5 5 6 5 14 5 5 14 12 8 12 7 14 20 19 10 16 18 14 13 12 10 10 10 8 8 9 8 9 9 7 7 6 5 4 2 3 6 4 6 4 6 7 8 8 5 5 6
9 9 8 8 7 11 2 7 9 8 10 5 5 14 11 8 15 20 20 17 16 14 12 12 10 8 9 9 10 8 8 5 5 5 3 3 2 4 6 5 5 5 7 5 6 4 5 9 8
3 1 6 2 3 3 4 8 11 12 10 6 4 12 13 7 6 15 14 14 10 10 13 13 12 10 11 12 9 8 7 7 7 8 5 4 4 4 7 5 6 6 5 6 4 4 8 8 10
5 4 1 2 4 7 7 10 11 8 5 9 5 6 13 18 9 3 5 9 10 10 12 11 12 16 15 12 8 8 9 8 8 6 7 7 6 4 5 6 6 7 6 5 4 4 5 9 10
3 2 5 4 4 2 3 6 5 2 3 3 2 6 9 4 6 7 9 6 9 8 8 10 10 13 11 10 11 9 8 8 7 7 8 7 5 6 6 5 6 6 6 6 5 6 7 10 10
1 3 5 5 4 2 4 7 14 5 7 7 7 1 3 3 3 3 2 4 8 7 7 8 9 11 13 13 11 12 10 8 8 8 9 8 7 7 7 6 5 6 5 6 6 9 8 10 12
Wind_Direction
327 314 251 34 65 64 259 258 25 320 333 32 352 105 97 125 146 164 17 153 137 139 151 167 159 152 144 137 134 132 128 126 122 118 118 117 117 121 122 121 123 122 122 119 116 112 107 97 90
318 323 36 75 99 116 260 60 2 304 303 87 183 85 73 82 43 95 99 149 146 141 149 160 165 156 147 138 140 138 135 132 128 127 125 124 128 130 129 127 129 131 132 130 129 129 126 120 120
290 190 77 110 156 184 206 38 341 338 335 335 92 44 74 70 83 127 124 139 141 144 146 150 160 156 148 139 139 138 137 135 133 134 133 133 134 133 131 130 132 137 140 138 144 150 145 143 139
334 10 22 96 244 255 173 270 327 19 340 6 139 39 9 311 121 168 147 144 144 147 147 148 153 159 151 143 139 138 139 136 137 140 140 141 141 139 137 137 141 147 150 150 153 157 155 137 122
30 64 47 53 268 267 295 213 109 79 349 7 8 93 51 349 48 137 152 156 152 157 154 144 156 162 158 150 147 143 144 144 144 146 147 149 149 148 147 149 152 162 161 158 162 176 168 171 200
14 87 69 230 255 285 307 313 218 7 337 349 34 30 45 308 24 164 155 161 164 156 157 149 159 167 164 158 152 150 149 149 150 152 154 156 159 158 160 162 167 169 174 172 179 186 199 194 239
134 93 201 231 273 303 283 330 275 272 276 288 205 107 299 19 303 80 166 168 159 156 150 146 146 162 165 162 157 156 154 154 155 159 162 165 168 170 173 176 182 181 182 190 200 193 211 225 227
131 110 210 210 243 275 298 354 305 185 279 260 156 170 211 252 293 38 90 162 149 138 144 143 138 146 158 162 166 160 157 157 159 163 169 172 175 181 185 186 193 191 193 208 220 214 214 221 234
110 83 215 215 204 260 312 350 320 238 234 235 175 158 187 164 63 61 89 91 116 103 94 157 148 145 149 159 166 166 161 159 163 166 172 173 180 188 192 193 204 202 201 212 222 225 231 227 236
148 169 222 217 225 270 285 219 272 281 283 239 229 88 107 96 76 85 92 114 119 137 136 148 185 153 145 153 155 151 175 171 168 172 174 171 187 196 196 204 208 211 211 215 223 226 233 235 226
207 201 221 261 250 254 273 278 263 241 267 222 234 172 164 99 100 104 98 113 130 169 168 154 160 210 163 153 150 154 146 158 177 171 171 178 188 212 220 217 219 201 218 217 226 231 227 214 198
250 263 233 253 245 258 262 279 270 224 239 268 217 140 140 138 133 130 127 128 113 101 145 166 156 165 236 190 161 161 169 177 190 187 175 182 205 217 223 218 222 211 205 206 230 220 231 210 200
177 243 251 252 252 253 255 262 259 244 231 261 172 124 140 147 140 151 129 130 131 116 112 146 168 160 175 181 195 167 177 189 185 199 188 176 206 219 225 224 220 228 205 206 216 232 243 213 197
265 259 257 248 252 250 256 269 255 258 217 216 202 160 162 164 167 118 125 142 139 134 124 97 135 179 152 168 182 183 177 180 183 179 208 204 188 204 220 223 215 227 215 211 220 215 232 221 186
272 298 315 269 244 240 222 289 258 251 189 232 226 197 186 192 179 167 180 159 150 157 145 137 136 138 157 176 187 201 189 183 194 189 183 209 204 201 210 219 207 219 213 215 224 228 226 227 197
341 27 303 287 309 266 138 263 272 276 216 215 223 211 190 193 196 197 177 163 164 146 161 153 160 144 139 117 221 204 174 185 202 219 169 198 208 218 210 225 222 209 211 205 199 221 246 242 224
347 247 276 298 256 265 183 274 250 258 264 247 214 209 215 210 207 223 177 179 169 173 155 157 159 167 159 145 125 235 283 209 213 189 218 187 201 208 212 216 231 233 231 220 196 214 200 227 246
236 241 259 239 287 265 292 274 284 275 252 248 215 222 217 223 217 219 179 170 155 150 115 120 116 129 139 215 163 160 116 264 269 226 211 171 199 204 201 213 225 212 232 247 222 229 208 222 249
232 249 261 277 235 246 251 264 272 269 277 243 242 199 251 237 231 170 154 143 134 132 139 144 132 107 105 57 80 4 206 167 204 246 313 216 204 210 198 218 216 205 226 232 207 224 226 266 161
240 239 251 264 279 297 286 283 286 259 256 220 216 229 211 173 183 163 151 152 171 153 146 142 143 137 126 126 94 154 187 285 238 154 61 323 319 251 202 206 217 209 225 232 218 197 205 236 178
252 222 242 252 291 306 318 292 303 302 276 296 234 213 200 176 178 175 170 176 167 165 165 155 152 144 142 128 103 58 30 297 284 301 162 100 282 294 282 226 214 210 219 223 228 213 196 226 216
234 231 261 290 323 250 81 288 289 288 300 286 277 276 247 201 193 183 183 179 171 171 150 144 150 144 149 129 104 115 152 354 307 219 307 142 170 301 290 253 241 213 226 233 219 214 218 177 235
246 235 236 236 245 91 87 272 269 304 285 268 283 284 259 215 194 197 193 181 165 146 150 155 151 157 162 147 141 151 229 221 267 320 332 244 169 186 192 297 264 229 220 231 218 200 215 179 211
257 226 31 47 109 273 220 180 286 274 262 299 266 285 291 286 204 200 188 153 153 158 156 153 156 173 175 170 173 180 199 218 229 255 252 274 286 287 194 234 264 275 241 215 212 216 217 194 214
249 77 298 301 286 264 257 243 251 279 259 245 298 317 293 263 187 165 159 160 166 169 162 166 174 186 183 178 185 196 206 212 212 216 219 227 222 276 272 244 232 254 257 256 229 206 185 235 234
230 197 214 255 247 275 317 236 254 237 262 265 300 348 313 229 168 165 157 165 170 172 170 176 182 181 189 194 206 202 203 198 215 230 248 260 249 243 276 273 281 281 287 302 289 281 243 228 235
282 235 174 105 49 335 277 292 304 283 286 244 62 37 343 25 129 148 161 169 169 170 184 183 187 202 197 198 201 202 201 196 205 220 222 232 243 257 263 289 297 284 266 284 322 245 250 237 226
161 192 225 86 209 249 240 257 250 302 325 288 119 95 14 3 348 318 200 187 190 190 193 190 195 199 204 208 200 203 203 198 202 199 213 219 230 239 270 279 280 282 275 261 265 270 264 241 245
347 344 76 123 178 199 292 260 243 194 238 295 174 116 112 124 37 11 318 245 200 195 189 203 199 204 206 198 207 204 209 211 200 196 204 204 214 240 251 249 254 256 271 274 253 259 263 266 262
94 153 134 141 241 227 238 269 262 323 290 180 152 127 186 148 33 353 297 341 308 291 240 220 209 204 208 206 205 209 213 198 192 207 214 206 209 219 231 255 268 271 278 282 291 284 283 279 272